Regional Weather Roundup
Issued by NWS

Home | Current Version | Previous Version | Graphics & Text | Print | Product List | Glossary On
Versions: 1 2 3 4 5 6 7 8 9 10 11 12 13 14 15 16 17 18 19 20 21 22 23 24 25 26 27 28 29 30 31 32 33 34 35 36 37 38 39 40 41 42 43 44 45 46 47 48 49 50
000
ASUS43 KMKX 291800
RWRWI

WISCONSIN REGIONAL WEATHER ROUNDUP
NATIONAL WEATHER SERVICE MILWAUKEE/SULLIVAN WI
100 PM CDT FRI AUG 29 2014

NOTE: "FAIR" INDICATES FEW OR NO CLOUDS BELOW 12,000 FEET WITH NO
SIGNIFICANT WEATHER AND/OR OBSTRUCTIONS TO VISIBILITY.

WIZ001-002-006>008-014>016-023>028-291900-
NORTHWEST WISCONSIN

CITY           SKY/WX    TMP DP  RH WIND       PRES   REMARKS
SUPERIOR ARPT  LGT RAIN  62  62  98 NE5       29.78S
ASHLAND        CLOUDY    67  65  93 SW6       29.81S
6HR MIN TEMP:  60; 6HR MAX TEMP:  67; 6HR PCP:  0.54;

HAYWARD        LGT RAIN  65  63  93 S8        29.82F
6HR MIN TEMP:  60; 6HR MAX TEMP:  65; 6HR PCP:  0.68;

SIREN          LGT RAIN  66  65  97 S7        29.80S
RICE LAKE      CLOUDY    70  66  86 SE7       29.83F
6HR MIN TEMP:  59; 6HR MAX TEMP:  70; 6HR PCP:  0.01;

LADYSMITH      CLOUDY    69  67  91 S8        29.86F
EAU CLAIRE     NOT AVBL
MENOMONIE      MOCLDY    76  69  78 S7        29.81F
6HR MIN TEMP:  61; 6HR MAX TEMP:  77;

NEW RICHMOND   CLOUDY    75  69  81 S9        29.80S
OSCEOLA        HVY RAIN  71  71 100 SW8       29.82R
$$

WIZ003>005-009-010-017-018-291900-
NORTH CENTRAL WISCONSIN

CITY           SKY/WX    TMP DP  RH WIND       PRES   REMARKS
WOODRUFF       CLOUDY    64  62  93 SE9       29.88F
RHINELANDER    CLOUDY    63  62  97 S8        29.90F
6HR MIN TEMP:  57; 6HR MAX TEMP:  64; 6HR PCP:  0.06;

EAGLE RIVER    CLOUDY    64  64  99 S7        29.90F
LAND O LAKES   CLOUDY    64  62  93 SE5       29.90F
PHILLIPS       HVY RAIN  65  64  97 SE7       29.86F
TOMAHAWK       CLOUDY    63  62  96 CALM      29.90F FOG
MEDFORD        CLOUDY    66  65  98 S9        29.88F FOG
MERRILL        CLOUDY    65  64  99 S6        29.89F FOG
$$

WIZ029-030-035-036-043>047-291900-
CENTRAL WISCONSIN

CITY           SKY/WX    TMP DP  RH WIND       PRES   REMARKS
WAUSAU         CLOUDY    67  65  93 SE6       29.87F FOG
6HR MIN TEMP:  59; 6HR MAX TEMP:  67; 6HR PCP:  0.05;

MOSINEE        CLOUDY    66  66 100 S10       29.90F FOG
MARSHFIELD     CLOUDY    73  67  81 S9        29.87F
6HR MIN TEMP:  61; 6HR MAX TEMP:  73; 6HR PCP: TRACE;

STEVENS POINT  CLOUDY    70  66  86 S8        29.89F FOG
WAUPACA        CLOUDY    76  71  82 SW7       29.89F
WAUTOMA        NOT AVBL
WISC RAPIDS    CLOUDY    75  68  78 S9        29.89F
6HR MIN TEMP:  62; 6HR MAX TEMP:  75;

CAMP DOUGLAS   NOT AVBL
$$

WIZ011>013-019>022-031-037>040-048>050-291900-
NORTHEAST WISCONSIN

CITY           SKY/WX    TMP DP  RH WIND       PRES   REMARKS
ANTIGO         FOG       64  64 100 S9        29.92F VSB 1/4
STURGEON BAY   CLOUDY    70  64  83 S18       29.92S
6HR MIN TEMP:  61; 6HR MAX TEMP:  70;

GREEN BAY      PTSUNNY   80  71  74 SW8G18    29.88F HX  84
6HR MIN TEMP:  63; 6HR MAX TEMP:  80; 6HR PCP:  0.15;

MANITOWOC      MOSUNNY   73  70  88 S21       29.91F
APPLETON       PTSUNNY   81  70  69 SW14      29.90F HX  84
CLINTONVILLE   CLOUDY    72  68  88 SW5       29.89F
OSHKOSH        SUNNY     82  72  71 S14       29.88F HX  87
6HR MIN TEMP:  65; 6HR MAX TEMP:  82;

$$

WIZ032>034-041-042-053>061-291900-
SOUTHWEST WISCONSIN

CITY           SKY/WX    TMP DP  RH WIND       PRES   REMARKS
LA CROSSE      SUNNY     82  70  66 S13       29.82F HX  86
6HR MIN TEMP:  66; 6HR MAX TEMP:  82;

SPARTA         PTSUNNY   78  67  67 S12       29.87S HX  80
VIROQUA        MOCLDY    78  72  84 SE8       29.88F
BOSCOBEL       SUNNY     86  70  58 S9        29.85F HX  90
6HR MIN TEMP:  71; 6HR MAX TEMP:  86;

PRAIRIE DU CHI MOSUNNY   83  70  63 S9        29.84F HX  87
PLATTEVILLE    FAIR      81  73  75 S13       29.90F HX  86
$$

WIZ056-057-062-063-064-067-068-291900-
SOUTH CENTRAL WISCONSIN

CITY           SKY/WX    TMP DP  RH WIND       PRES   REMARKS
BARABOO/DELLS  SUNNY     82  67  60 S12G18    29.88F HX  84
LONE ROCK      NOT AVBL
WATERTOWN      MOSUNNY   81  73  75 S12G17    29.91F HX  86
MADISON        MOSUNNY   83  70  64 S17       29.89F HX  87
6HR MIN TEMP:  67; 6HR MAX TEMP:  83;

MIDDLETON      FAIR      83  69  62 S14G21    29.90F HX  87
MONROE         MOSUNNY   81  72  74 S16       29.92F HX  84
JANESVILLE     PTSUNNY   81  70  69 S15       29.92F HX  84
$$

WIZ051-052-058>065-066-070>072-291900-
SOUTHEAST WISCONSIN

CITY           SKY/WX    TMP DP  RH WIND       PRES   REMARKS
MILWAUKEE      PTSUNNY   77  72  84 S9        29.94F
6HR MIN TEMP:  70; 6HR MAX TEMP:  78; 6HR PCP:  0.06;

WAUKESHA       MOSUNNY  N/A N/A N/A MISG      29.95F
MILWAUKEE/TIMM PTSUNNY   79  68  69 S13       29.94F HX  81
RACINE         MOSUNNY   77  69  76 S12       29.96F
6HR MIN TEMP:  71; 6HR MAX TEMP:  77; 6HR PCP:  0.09;

BURLINGTON     LGT RAIN  76  73  91 S3        29.94F
KENOSHA        MOSUNNY   81  73  76 S8        29.95F HX  86
6HR MIN TEMP:  70; 6HR MAX TEMP:  82; 6HR PCP:  0.24;

FOND DU LAC    SUNNY     81  70  69 S14G21    29.89F HX  84
6HR MIN TEMP:  67; 6HR MAX TEMP:  82;

SHEBOYGAN      SUNNY     80  71  74 S10       29.91F HX  84
6HR MIN TEMP:  68; 6HR MAX TEMP:  80;

WEST BEND      SUNNY     79  68  69 S12       29.92F HX  81
JUNEAU         MOSUNNY   80  71  72 S14       29.92F HX  84
$$

LSZ147-162-291900-
LAKE SUPERIOR

STATION/POSITION TIME  TEMP    WIND        PRES    WAVE
                       AIR SEA DIR/SP/G            HT/PER
                 (UTC) (F)     (DEG/KT/KT) (MB)    (FT/S)
W MID LAKE BUOY  1650   59 58  130/ 10/ 12 1010.1F   1/ 3
DEVILS ISLAND    1700   61     140/  6/  7 1009.7F
PORT WING        1740   65     340/  7/  7 1008.8F
SAXON HARBOR     1700   66     190/  1/  6 1009.5F
$$

LMZ867-665-643>646-291900-
LAKE MICHIGAN

STATION/POSITION TIME  TEMP    WIND        PRES    WAVE
                       AIR SEA DIR/SP/G            HT/PER
                 (UTC) (F)     (DEG/KT/KT) (MB)    (FT/S)
N MID LAKE BUOY  1650   64 65  170/ 16/ 19 1013.9F   3/ 4
NORTHPORT PIER   1700   65     150/ 10/ 13 1013.2F
SISTER BAY       1711   67     180/ 19/ 26   N/A
KEWAUNEE LAKESHO 1700   67     170/ 16/ 19 1012.5F
SHEBOYGAN LAKESH 1700   68 69  170/ 18/ 19 1013.3F
ATWATER BUOY     1700   71     170/ 10/ 14 1014.8F
MILWAUKEE LAKESH 1700   72     150/  7/ 11   N/A
S MID LAKE BUOY  1650   70 69  180/ 12/ 14 1015.4S   4/ 5
KENOSHA   LAKESH 1700   73     170/ 14/ 16 1013.9F
$$

TC  - TEMPERATURE IN CELSIUS
VSB - VISIBILITY IN STATUTE MILES
WCI - WIND CHILL INDEX
HX  - HEAT INDEX



USA.gov is the U.S. government's official web portal to all federal, state and local government web resources and services.